Regional Weather Roundup
Issued by NWS

Home | Current Version | Previous Version | Text Only | Print | Product List | Glossary Off
Versions: 1 2 3 4 5 6 7 8 9 10 11 12 13 14 15 16 17 18 19 20 21 22 23 24 25 26 27

000
ASUS45 KSLC 171810
RWRUT

UTAH REGIONAL WEATHER ROUNDUP
NATIONAL WEATHER SERVICE SALT LAKE CITY UT
1100 AM MST SUN DEC 17 2017

UTZ001>011-023>025-171900-

NORTHERN UTAH

CITY           SKY/WX    TMP DP  RH WIND       PRES   REMARKS
BRIGHAM CITY   SUNNY     29  22  77 CALM      30.23S
HILL AFB       SUNNY     30  24  77 SE7       30.20S WCI  23
LOGAN          SUNNY     30  21  69 CALM      30.22S
OGDEN          SUNNY     31  25  78 S6        30.20F WCI  25
SALT LAKE CITY MOSUNNY   31  26  82 CALM      30.22F
TOOELE VALLEY  SUNNY     30  27  86 CALM      30.23F
WENDOVER       SUNNY     29  20  69 E5        30.24S WCI  24
HEBER CITY       N/A     32  19  59 S3        30.15S
WEST JORDAN    SUNNY     28  25  86 CALM      30.22F

$$

UTZ011>015-024>027-171900-

CENTRAL/NORTHEAST UTAH

CITY           SKY/WX    TMP DP  RH WIND       PRES   REMARKS
PROVO AIRPORT  PTSUNNY   31  25  78 NW7       30.23R WCI  24
MOAB/CANYONLAN SUNNY     35  12  38 CALM      30.09S
DELTA          CLOUDY    30  27  86 N5        30.22S WCI  25
PRICE          SUNNY     38  17  42 NW8       30.06R WCI  32
RICHFIELD      CLOUDY    32  23  69 N5        30.18S WCI  27
ROOSEVELT      MOSUNNY   36  16  44 CALM      30.11F
VERNAL         PTSUNNY   35  17  47 SE6       30.09S WCI  30

$$

UTZ013>016-019>022-027-171900-

SOUTHERN UTAH

CITY           SKY/WX    TMP DP  RH WIND       PRES   REMARKS
BRYCE CANYON   MOSUNNY   28  19  69 NW12      30.09S WCI  18
CEDAR CITY     CLOUDY    29  22  75 N10       30.14S WCI  20
MILFORD        CLOUDY    30  23  75 N13       30.19R WCI  20
ST GEORGE      CLEAR     45  22  40 S7        30.13R
HANKSVILLE     SUNNY     32  12  43 CALM      30.13S
BLANDING         N/A     44   7  22 S7        30.12R

$$

REGIONAL REPORTS     COLORADO/ARIZONA

CITY           SKY/WX    TMP DP  RH WIND       PRES   REMARKS
CRAIG, CO      CLOUDY    26  19  74 CALM      30.08S
GRAND JUNCTION SUNNY     33  11  39 SE5       30.09F WCI  29
RIFLE, CO      SUNNY     28   9  44 CALM      30.09F
MONTROSE, CO   SUNNY     34   6  31 CALM      30.10F
CORTEZ, CO     SUNNY     44   7  21 CALM      30.04S
COLORADO CITY    N/A     41  23  48 NW8       30.10S
PAGE, AZ       SUNNY     40  18  41 N3        30.08R
GRAND CANYON   SUNNY     43   8  23 NE10      30.04R
KINGMAN, AZ    SUNNY     46  21  37 NE14      30.04R
FLAGSTAFF, AZ  SUNNY     40  11  30 E13G23    30.01S WCI  32

$$

REGIONAL REPORTS    NEVADA/IDAHO/WYOMING

CITY           SKY/WX    TMP DP  RH WIND       PRES   REMARKS
LAS VEGAS, NV  SUNNY     51  17  26 N21G29    30.11R
ELY, NY        SUNNY     19  13  77 CALM      30.18F
ELKO, NV       SUNNY     23  15  71 CALM      30.24R
POCATELLO, ID  CLOUDY    25  18  74 W10       30.25R WCI  15
BURLEY, ID     SUNNY     30  18  60 NW7       30.25R WCI  23
FORT BRIDGER,    N/A     28  18  68 W17       30.12S WCI  15
EVANSTON, WY   SUNNY     23  18  81 SW15      30.10S WCI  10
ROCK SPRINGS,  SUNNY     24  14  65 W18       30.05S WCI  10

$$




USA.gov is the U.S. government's official web portal to all federal, state and local government web resources and services.